EW4427 Weather Reports


time (UTC)temp
F
wind
direction
speed
knots
gust
knots
rain 1hr
in
rain 24hr
in
rain mn
in
humidity
%
barometer
mb
20260906062046 65 0 0.0 0.0 0.00 0.00 0.00 92 1018.2
20260906061559 65 0 0.0 0.0 0.00 0.00 0.00 92 1018.2
20260906061044 65 0 0.0 0.0 0.00 0.00 0.00 92 1018.2
20260906060546 65 0 0.0 0.0 0.00 0.00 0.00 92 1018.2
20260906060058 65 0 0.0 0.0 0.00 0.00 0.00 92 1018.2
20260906055546 65 0 0.0 0.0 0.00 0.00 0.00 92 1018.2
20260906055046 65 0 0.0 0.0 0.00 0.00 0.00 92 1018.1
20260906054610 65 0 0.0 0.0 0.00 0.00 0.00 92 1018.0
20260906054046 65 0 0.0 0.0 0.00 0.00 0.00 92 1018.0
20260906053548 65 0 0.0 0.0 0.00 0.00 0.00 92 1018.1
20260906053100 65 0 0.0 0.0 0.00 0.00 0.00 92 1017.9
20260906052545 65 0 0.0 0.0 0.00 0.00 0.00 91 1017.9
20260906052049 66 0 0.0 0.0 0.00 0.00 0.00 91 1017.9
20260906051624 66 0 0.0 0.0 0.00 0.00 0.00 91 1017.9
20260906051046 66 0 0.0 0.0 0.00 0.00 0.00 91 1017.9
20260906050546 66 0 0.0 0.0 0.00 0.00 0.00 91 1017.9
20260906050108 66 0 0.0 0.0 0.00 0.00 0.00 91 1017.8
20260906045548 66 0 0.0 0.0 0.00 0.00 0.00 91 1017.8
20260906045045 66 0 0.0 0.0 0.00 0.00 0.00 91 1017.8
20260906044606 66 0 0.0 0.0 0.00 0.00 0.00 91 1017.7
20260906044046 66 0 0.0 0.0 0.00 0.00 0.00 91 1017.6
20260906043545 66 0 0.0 0.0 0.00 0.00 0.00 91 1017.5
20260906043055 66 0 0.0 0.0 0.00 0.00 0.00 91 1017.5
20260906042547 66 0 0.0 0.0 0.00 0.00 0.00 91 1017.4
20260906042047 66 0 0.0 0.0 0.00 0.00 0.00 91 1017.5
20260906041557 66 0 0.0 0.0 0.00 0.00 0.00 90 1017.4
20260906041047 67 0 0.0 0.0 0.00 0.00 0.00 90 1017.3
20260906040546 67 0 0.0 0.0 0.00 0.00 0.00 91 1017.3
20260906040107 67 0 0.0 0.0 0.00 0.00 0.00 91 1017.2
20260906035545 67 0 0.0 0.0 0.00 0.00 0.00 91 1017.2
20260906035046 67 0 0.0 0.0 0.00 0.00 0.00 90 1017.2
20260906034605 67 0 0.0 0.0 0.00 0.00 0.00 90 1017.2
20260906034046 67 0 0.0 0.0 0.00 0.00 0.00 90 1017.3
20260906033543 67 0 0.0 0.0 0.00 0.00 0.00 90 1017.3
20260906033059 67 0 0.0 0.0 0.00 0.00 0.00 90 1017.3
20260906032547 67 0 0.0 0.0 0.00 0.00 0.00 89 1017.2
20260906032046 67 0 0.0 0.0 0.00 0.00 0.00 89 1017.3
20260906031556 67 0 0.0 0.0 0.00 0.00 0.00 89 1017.3
20260906031045 67 0 0.0 0.0 0.00 0.00 0.00 89 1017.2
20260906030546 67 0 0.0 0.0 0.00 0.00 0.00 89 1017.2
20260906025545 67 0 0.0 0.0 0.00 0.00 0.00 89 1017.2
20260906025044 68 0 0.0 0.0 0.00 0.00 0.00 89 1017.3
20260906024601 68 0 0.0 0.0 0.00 0.00 0.00 88 1017.3
20260906024045 68 0 0.0 0.0 0.00 0.00 0.00 89 1017.1
20260906023545 68 0 0.0 0.0 0.00 0.00 0.00 89 1017.1
20260906023058 68 0 0.0 0.0 0.00 0.00 0.00 89 1017.0
20260906022548 68 0 0.0 0.0 0.00 0.00 0.00 89 1016.8
20260906022046 68 0 0.0 0.0 0.00 0.00 0.00 88 1016.8
20260906021602 68 0 0.0 0.0 0.00 0.00 0.00 88 1016.8
20260906021043 68 0 0.0 0.0 0.00 0.00 0.00 88 1016.7
20260906020545 69 0 0.0 0.0 0.00 0.00 0.00 88 1016.8
20260906020059 69 0 0.0 0.0 0.00 0.00 0.00 88 1016.8
20260906015543 69 0 0.0 0.0 0.00 0.00 0.00 88 1016.9
20260906015043 69 0 0.0 0.0 0.00 0.00 0.00 88 1016.9
20260906014638 69 0 0.0 0.0 0.00 0.00 0.00 88 1017.1
20260906014043 69 0 0.0 0.0 0.00 0.00 0.00 88 1017.1
20260906013544 69 0 0.0 0.0 0.00 0.00 0.00 88 1017.1
20260906013102 69 0 0.0 0.0 0.00 0.00 0.00 88 1017.0
20260906012544 70 0 0.0 0.0 0.00 0.00 0.00 88 1017.0
20260906012044 70 0 0.0 0.0 0.00 0.00 0.00 88 1017.0
20260906011604 70 0 0.0 0.9 0.00 0.00 0.00 88 1017.1
20260906011044 70 0 0.0 0.9 0.00 0.00 0.00 88 1017.1
20260906010543 70 0 0.0 2.6 0.00 0.00 0.00 88 1017.1
20260906010101 70 0 0.0 2.6 0.00 0.00 0.00 88 1017.0
20260906005543 70 0 0.0 4.3 0.00 0.00 0.00 88 1017.2
20260906005043 70 20 1.7 4.3 0.00 0.00 0.00 88 1017.2
20260906004613 70 311 0.9 3.5 0.00 0.00 0.00 87 1017.1
20260906004046 70 352 0.9 5.2 0.00 0.00 0.00 87 1017.1
20260906003544 70 11 0.9 5.2 0.00 0.00 0.00 87 1017.1
20260906003114 71 31 0.9 5.2 0.00 0.00 0.00 87 1017.1
20260906002543 71 338 1.7 4.3 0.00 0.00 0.00 87 1016.9
20260906002044 71 5 1.7 4.3 0.00 0.00 0.00 87 1017.0
20260906001557 71 348 0.0 3.5 0.00 0.00 0.00 87 1017.0
20260906001044 71 15 0.9 3.5 0.00 0.00 0.00 87 1017.0
20260906000547 71 30 0.9 3.5 0.00 0.00 0.00 87 1016.8
20260906000100 71 24 0.9 6.1 0.00 0.00 0.00 87 1017.0
20260905235544 71 0 0.9 6.1 0.00 0.00 0.00 86 1017.0
20260905235044 72 35 0.9 10.4 0.00 0.00 0.00 86 1017.0
20260905234611 72 36 1.7 10.4 0.00 0.00 0.00 86 1017.1
20260905234044 72 10 2.6 10.4 0.00 0.00 0.00 86 1017.1
20260905233544 72 0 0.9 5.2 0.00 0.00 0.00 85 1017.1
20260905233059 72 26 1.7 5.2 0.00 0.00 0.00 85 1017.1
20260905232543 72 19 0.9 6.1 0.00 0.00 0.00 85 1017.0
20260905232046 73 340 2.6 6.1 0.00 0.00 0.00 84 1017.0
20260905231557 73 17 0.9 4.3 0.00 0.00 0.00 85 1017.1
20260905231047 73 0 0.0 7.0 0.00 0.00 0.00 85 1016.9
20260905230547 73 296 0.9 7.0 0.00 0.00 0.00 84 1016.8
20260905230110 73 34 1.7 7.0 0.00 0.00 0.00 84 1016.9
20260905225544 73 0 2.6 7.0 0.00 0.00 0.00 83 1016.8
20260905225044 73 30 1.7 6.1 0.00 0.00 0.00 83 1016.8
20260905224610 74 19 1.7 5.2 0.00 0.00 0.00 83 1016.7
20260905224044 74 350 0.9 7.8 0.00 0.00 0.00 83 1016.8
20260905223541 74 5 2.6 7.8 0.00 0.00 0.00 82 1016.8
20260905223058 74 50 0.9 5.2 0.00 0.00 0.00 83 1016.8
20260905222544 74 0 1.7 6.1 0.00 0.00 0.00 82 1016.9
20260905222045 74 0 0.9 6.1 0.00 0.00 0.00 82 1016.8
20260905221616 75 355 1.7 7.8 0.00 0.00 0.00 82 1016.7
20260905221044 75 23 0.9 7.8 0.00 0.00 0.00 82 1016.6
20260905220544 75 5 2.6 7.8 0.00 0.00 0.00 81 1016.5
20260905220100 76 41 2.6 7.0 0.00 0.00 0.00 81 1016.5
20260905215544 76 66 2.6 8.7 0.00 0.00 0.00 81 1016.3
20260905215045 76 350 3.5 8.7 0.00 0.00 0.00 80 1016.1
20260905214601 77 5 2.6 8.7 0.00 0.00 0.00 80 1016.2
20260905214043 77 27 2.6 7.0 0.00 0.00 0.00 79 1016.1
20260905213544 77 24 2.6 7.0 0.00 0.00 0.00 79 1015.9
20260905213103 77 26 1.7 7.0 0.00 0.00 0.00 79 1015.9
20260905212543 77 53 2.6 7.8 0.00 0.00 0.00 79 1015.8
20260905212045 78 19 2.6 11.3 0.00 0.00 0.00 79 1015.7
20260905211602 78 44 1.7 11.3 0.00 0.00 0.00 78 1015.8
20260905211043 78 52 3.5 11.3 0.00 0.00 0.00 78 1015.8
20260905210542 78 26 1.7 9.6 0.00 0.00 0.00 78 1015.8
20260905210059 78 299 3.5 9.6 0.00 0.00 0.00 78 1015.7
20260905205544 78 19 2.6 8.7 0.00 0.00 0.00 78 1015.7
20260905205044 78 30 2.6 8.7 0.00 0.00 0.00 78 1015.7
20260905204555 78 360 4.3 8.7 0.00 0.00 0.00 77 1015.8
20260905204044 78 30 2.6 9.6 0.00 0.00 0.00 78 1015.7
20260905203542 78 42 2.6 9.6 0.00 0.00 0.00 78 1015.9
20260905203105 78 5 2.6 8.7 0.00 0.00 0.00 79 1015.9
20260905202542 79 33 2.6 9.6 0.00 0.00 0.00 79 1015.8
20260905202042 79 16 3.5 9.6 0.00 0.00 0.00 79 1015.8
20260905201615 79 92 2.6 9.6 0.00 0.00 0.00 79 1015.9
20260905201044 79 49 4.3 8.7 0.00 0.00 0.00 79 1015.9
20260905200544 79 25 1.7 10.4 0.00 0.00 0.00 78 1015.8
20260905195544 80 236 1.7 7.8 0.00 0.00 0.00 78 1015.9
20260905195044 80 321 2.6 7.8 0.00 0.00 0.00 77 1015.9
20260905194557 80 26 1.7 7.0 0.00 0.00 0.00 78 1015.7
20260905194047 80 12 1.7 5.2 0.00 0.00 0.00 78 1015.7
20260905193541 80 277 0.9 5.2 0.00 0.00 0.00 79 1015.8
20260905193114 80 30 1.7 5.2 0.00 0.00 0.00 79 1015.9
20260905192546 80 0 0.9 7.8 0.00 0.00 0.00 78 1015.9
20260905192045 79 14 1.7 7.8 0.00 0.00 0.00 78 1015.8
20260905191558 79 5 0.9 5.2 0.00 0.00 0.00 79 1015.8
20260905191045 79 42 1.7 5.2 0.00 0.00 0.00 79 1015.8
20260905190545 79 39 0.9 8.7 0.00 0.00 0.00 78 1015.8
20260905185545 79 345 1.7 5.2 0.00 0.00 0.00 79 1015.9
20260905185049 79 55 1.7 5.2 0.00 0.00 0.00 80 1015.8
20260905184606 79 26 0.9 3.5 0.00 0.00 0.00 80 1015.8
20260905184047 79 13 0.9 3.5 0.00 0.00 0.00 81 1015.8
20260905183546 78 18 0.0 3.5 0.00 0.00 0.00 83 1015.9
20260905183100 78 16 0.9 3.5 0.00 0.00 0.00 82 1016.0
20260905182545 78 18 0.9 3.5 0.00 0.00 0.00 82 1015.9
20260905182046 78 352 0.0 3.5 0.00 0.00 0.00 82 1016.0
20260905181609 77 24 0.9 3.5 0.00 0.00 0.00 82 1016.0
20260905181047 77 5 1.7 4.3 0.00 0.00 0.00 82 1016.0
20260905180546 77 0 0.9 4.3 0.00 0.00 0.00 83 1016.0
20260905180104 77 44 0.9 3.5 0.00 0.00 0.00 84 1016.0
20260905175546 77 0 0.0 1.7 0.00 0.00 0.00 84 1015.9
20260905175046 76 0 0.0 3.5 0.00 0.00 0.00 85 1015.8
20260905174605 76 0 0.0 6.1 0.00 0.00 0.00 84 1015.8
20260905174045 76 0 1.7 6.1 0.00 0.00 0.00 84 1016.0
20260905173546 76 17 0.0 2.6 0.00 0.00 0.00 85 1016.1
20260905173057 76 26 0.0 4.3 0.00 0.00 0.00 85 1016.1
20260905172545 76 0 0.9 4.3 0.00 0.00 0.00 85 1016.0
20260905172045 75 355 0.9 4.3 0.00 0.00 0.00 86 1016.0
20260905171604 75 0 0.0 3.5 0.00 0.00 0.00 86 1016.0
20260905171046 75 5 0.0 3.5 0.00 0.00 0.00 87 1016.0
20260905170546 75 0 0.0 2.6 0.00 0.00 0.00 87 1016.0
20260905170100 75 0 0.0 3.5 0.00 0.00 0.00 86 1016.1
20260905165545 75 350 0.9 3.5 0.00 0.00 0.00 86 1016.3
20260905165045 75 0 0.9 5.2 0.00 0.00 0.00 86 1016.2
20260905164558 75 351 0.0 5.2 0.00 0.00 0.00 86 1016.3
20260905164048 75 55 1.7 6.1 0.00 0.00 0.00 86 1016.3
20260905163545 75 45 1.7 6.1 0.00 0.00 0.00 87 1016.4
20260905163058 75 336 1.7 4.3 0.00 0.00 0.00 87 1016.2
20260905162545 74 25 0.0 3.5 0.00 0.00 0.00 88 1016.3
20260905162046 74 5 0.9 3.5 0.00 0.00 0.00 88 1016.2
20260905161605 74 0 0.9 3.5 0.00 0.00 0.00 88 1016.2
20260905161046 74 0 0.0 2.6 0.00 0.00 0.00 88 1016.2
20260905160547 74 42 0.9 2.6 0.00 0.00 0.00 89 1016.2
20260905160100 74 0 0.0 4.3 0.00 0.00 0.00 89 1016.2
20260905155545 74 5 1.7 5.2 0.00 0.00 0.00 89 1016.2
20260905155045 73 0 0.9 6.1 0.00 0.00 0.00 89 1016.1
20260905154616 73 21 0.9 6.1 0.00 0.00 0.00 90 1016.0
20260905154045 73 0 0.0 2.6 0.00 0.00 0.00 91 1016.0
20260905153545 73 0 0.0 2.6 0.00 0.00 0.00 92 1016.1
20260905153057 73 0 0.0 0.0 0.00 0.00 0.00 92 1016.0
20260905152545 73 0 0.0 3.5 0.00 0.00 0.00 92 1016.0
20260905152046 73 0 0.0 3.5 0.00 0.00 0.00 93 1016.0
20260905151605 73 0 0.0 2.6 0.00 0.00 0.00 93 1016.0
20260905151048 72 0 0.0 4.3 0.00 0.00 0.00 93 1015.8
20260905150545 72 5 0.9 4.3 0.00 0.00 0.00 93 1015.8
20260905150059 72 0 0.0 1.7 0.00 0.00 0.00 93 1015.8
20260905145546 72 0 0.0 1.7 0.00 0.00 0.00 94 1015.7
20260905145045 72 0 0.0 3.5 0.00 0.00 0.00 94 1015.7
20260905144558 72 0 0.0 3.5 0.00 0.00 0.00 94 1015.7
20260905144047 72 26 0.0 4.3 0.00 0.00 0.00 94 1015.6
20260905143545 72 0 0.0 4.3 0.00 0.00 0.00 94 1015.6
20260905143056 72 0 0.9 5.2 0.00 0.00 0.00 95 1015.4
20260905142545 71 0 0.9 6.1 0.00 0.00 0.00 95 1015.3
20260905142045 71 11 0.9 6.1 0.00 0.00 0.00 95 1015.4
20260905141559 71 0 0.0 4.3 0.00 0.00 0.00 95 1015.4
20260905141045 71 0 0.0 4.3 0.00 0.00 0.00 95 1015.4
20260905140546 71 0 0.0 4.3 0.00 0.00 0.00 95 1015.4
20260905135547 71 32 0.9 4.3 0.00 0.00 0.00 95 1015.2
20260905135046 71 0 0.0 5.2 0.00 0.00 0.00 96 1015.3
20260905134556 71 0 0.9 5.2 0.00 0.00 0.00 96 1015.3
20260905134045 71 0 0.0 3.5 0.00 0.00 0.00 96 1015.3
20260905133546 71 0 0.0 3.5 0.00 0.00 0.00 96 1015.3
20260905133056 71 0 0.9 3.5 0.00 0.00 0.00 96 1015.2
20260905132547 71 0 0.0 3.5 0.00 0.00 0.00 96 1015.3
20260905132100 71 0 0.0 3.5 0.00 0.00 0.00 96 1015.4
20260905131609 71 0 0.0 3.5 0.00 0.00 0.00 96 1015.5
20260905131044 71 0 0.0 3.5 0.00 0.00 0.00 96 1015.8
20260905130549 70 15 0.0 3.5 0.00 0.00 0.00 96 1015.6
20260905130101 70 0 0.9 3.5 0.00 0.00 0.00 96 1015.4
20260905125545 70 0 0.0 3.5 0.00 0.00 0.00 96 1015.3
20260905125044 70 0 0.0 3.5 0.00 0.00 0.00 96 1015.1
20260905124603 70 17 0.0 7.0 0.00 0.00 0.00 96 1015.1
20260905124043 70 22 0.9 7.0 0.00 0.00 0.00 96 1014.9
20260905123545 70 0 0.0 3.5 0.00 0.00 0.00 96 1014.9
20260905123106 70 0 0.0 1.7 0.00 0.00 0.00 96 1014.7
20260905122542 70 0 0.0 2.6 0.00 0.00 0.00 96 1014.6
20260905122045 70 0 0.0 3.5 0.00 0.00 0.00 96 1014.5
20260905121603 70 32 0.0 3.5 0.00 0.00 0.00 96 1014.4
20260905121045 70 0 0.9 5.2 0.00 0.00 0.00 96 1014.4
20260905120544 70 0 1.7 7.0 0.00 0.00 0.00 96 1014.4
20260905120100 70 326 0.9 7.0 0.00 0.00 0.00 96 1014.3
20260905115545 70 0 0.0 4.3 0.00 0.01 0.00 96 1014.3
20260905115044 70 50 0.0 5.2 0.00 0.01 0.00 96 1014.3
20260905114559 70 337 1.7 5.2 0.00 0.01 0.00 96 1014.2
20260905114044 70 15 0.9 5.2 0.00 0.01 0.00 96 1014.2
20260905113545 70 22 0.0 7.0 0.00 0.01 0.00 96 1014.0
20260905113058 70 24 2.6 7.0 0.00 0.01 0.00 95 1014.0
20260905112542 70 34 1.7 7.0 0.00 0.01 0.00 95 1013.9
20260905112042 70 16 1.7 6.1 0.00 0.01 0.00 95 1013.9
20260905111609 70 31 1.7 6.1 0.00 0.01 0.00 95 1013.9
20260905111042 70 0 0.0 5.2 0.00 0.01 0.00 95 1013.8
20260905110542 70 26 0.9 5.2 0.00 0.01 0.00 95 1013.8
20260905110100 70 0 0.0 4.3 0.00 0.01 0.00 95 1013.8
20260905105545 70 9 0.0 4.3 0.00 0.01 0.00 95 1013.6
20260905105047 70 0 0.0 4.3 0.00 0.01 0.00 95 1013.7
20260905104613 70 0 0.0 4.3 0.00 0.01 0.00 95 1013.6
20260905104045 70 350 0.0 3.5 0.00 0.01 0.00 95 1013.6
20260905103544 69 5 0.0 3.5 0.00 0.01 0.00 95 1013.7
20260905103109 69 0 0.0 0.0 0.00 0.01 0.00 95 1013.6
20260905102544 69 0 0.0 0.0 0.00 0.01 0.00 95 1013.7
20260905102042 69 0 0.0 0.0 0.00 0.01 0.00 95 1013.6
20260905101604 69 0 0.0 0.0 0.00 0.01 0.00 95 1013.6
20260905101045 69 0 0.0 0.0 0.00 0.01 0.00 95 1013.4
20260905100544 69 0 0.0 0.0 0.00 0.01 0.00 94 1013.4
20260905100106 69 0 0.0 0.0 0.00 0.01 0.00 94 1013.5
20260905095545 69 0 0.0 0.0 0.00 0.01 0.00 94 1013.5
20260905095042 69 0 0.0 0.0 0.00 0.01 0.00 94 1013.5
20260905094601 69 0 0.0 0.0 0.00 0.01 0.00 94 1013.4
20260905094044 69 0 0.0 0.0 0.00 0.01 0.00 94 1013.4
20260905093542 69 0 0.0 0.0 0.00 0.01 0.00 94 1013.5
20260905093054 69 0 0.0 0.0 0.00 0.01 0.00 94 1013.5
20260905092544 70 0 0.0 0.0 0.00 0.01 0.00 94 1013.4
20260905092042 70 0 0.0 0.0 0.00 0.01 0.00 94 1013.4
20260905091633 70 0 0.0 0.0 0.00 0.01 0.00 94 1013.5
20260905091044 70 0 0.0 0.0 0.00 0.01 0.00 94 1013.5
20260905090545 70 0 0.0 0.0 0.00 0.01 0.00 94 1013.6
20260905090058 70 0 0.0 0.0 0.00 0.01 0.00 94 1013.6
20260905085545 70 0 0.0 0.0 0.00 0.01 0.00 94 1013.6
20260905085042 70 0 0.0 0.0 0.00 0.01 0.00 94 1013.5
20260905084614 70 0 0.0 0.0 0.00 0.01 0.00 94 1013.5
20260905084042 70 0 0.0 0.0 0.00 0.01 0.00 94 1013.5
20260905083543 70 0 0.0 0.0 0.00 0.01 0.00 93 1013.3
20260905083059 70 0 0.0 0.0 0.00 0.01 0.00 94 1013.3
20260905082542 70 0 0.0 0.0 0.00 0.01 0.00 93 1013.1
20260905082042 70 0 0.0 0.0 0.00 0.01 0.00 93 1013.1
20260905081602 70 0 0.0 0.0 0.00 0.01 0.00 93 1013.1
20260905081043 70 0 0.0 0.0 0.00 0.01 0.00 93 1013.2
20260905080544 70 0 0.0 0.0 0.00 0.01 0.00 93 1013.3
20260905080107 70 0 0.0 0.0 0.00 0.01 0.00 93 1013.2
20260905075544 70 0 0.0 0.0 0.00 0.01 0.00 93 1013.2
20260905075042 70 0 0.0 0.0 0.00 0.01 0.00 93 1013.3
20260905074614 71 0 0.0 0.0 0.00 0.01 0.00 93 1013.2
20260905074045 71 0 0.0 0.0 0.00 0.01 0.00 93 1013.3
20260905073544 71 0 0.0 0.0 0.00 0.01 0.00 93 1013.2
20260905073059 71 0 0.0 0.0 0.00 0.01 0.00 93 1013.2
20260905072544 71 0 0.0 0.0 0.00 0.01 0.00 93 1013.3
20260905072044 71 0 0.0 0.0 0.00 0.01 0.00 93 1013.3
20260905071607 71 0 0.0 0.0 0.00 0.01 0.00 93 1013.3
20260905071046 71 0 0.0 0.0 0.00 0.01 0.00 93 1013.4
20260905070546 71 0 0.0 0.0 0.00 0.01 0.00 93 1013.4
20260905070110 71 0 0.0 0.0 0.00 0.01 0.00 93 1013.5
20260905065547 71 0 0.0 0.0 0.00 0.01 0.00 93 1013.5
20260905065047 71 0 0.0 0.0 0.00 0.01 0.00 93 1013.5
20260905064557 71 0 0.0 0.0 0.00 0.01 0.00 93 1013.4
20260905064045 72 0 0.0 0.0 0.00 0.01 0.00 93 1013.3
20260905063547 72 0 0.0 0.0 0.00 0.01 0.00 94 1013.3
20260905063059 72 0 0.0 0.0 0.00 0.01 0.00 94 1013.2
20260905062546 72 0 0.0 0.0 0.00 0.01 0.00 94 1013.3